Preview of NWS' New Version of Forecast
This preview is not operational and should not be used for support decisions.

Regional Weather Roundup (RWR)

Issued by National Weather Service (NWS)

                            
000
ASUS43 KMKX 211321
RWRWI 

WISCONSIN REGIONAL WEATHER ROUNDUP
NATIONAL WEATHER SERVICE MILWAUKEE/SULLIVAN WI
800 AM CDT SAT SEP 21 2019

NOTE: "FAIR" INDICATES FEW OR NO CLOUDS BELOW 12,000 FEET WITH NO
SIGNIFICANT WEATHER AND/OR OBSTRUCTIONS TO VISIBILITY.

WIZ001-002-006>008-014>016-023>028-211400-
NORTHWEST WISCONSIN
  
CITY           SKY/WX    TMP DP  RH WIND       PRES   REMARKS
SUPERIOR ARPT  LGT RAIN  53  53 100 CALM      29.79F VSB 1            
ASHLAND        FAIR      71  67  87 S6        29.83F                  
HAYWARD        LGT RAIN  69  66  90 S8        29.86F FOG              
SIREN          CLOUDY    69  68  94 S7        29.83S                  
CUMBERLAND     PTSUNNY   68  64  88 SE10      29.85S                  
RICE LAKE      CLOUDY    69  55  61 SE12      29.87F                  
CHETEK         PTSUNNY   68  68  99 S8        29.87F                  
LADYSMITH      PTSUNNY   71  69  95 S10G16    29.90F                  
EAU CLAIRE     PTSUNNY   73  67  81 S13       29.87F                  
MENOMONIE      CLOUDY    67  66  97 SE6       29.86F                  
NEW RICHMOND   PTSUNNY   70  67  89 S8G16     29.84S                  
OSCEOLA        CLOUDY    70  70 100 S12       29.84F                  
$$
 
WIZ003>005-009-010-017-018-211400-
NORTH CENTRAL WISCONSIN
  
CITY           SKY/WX    TMP DP  RH WIND       PRES   REMARKS
MANITOWISH WTR CLOUDY    69  69 100 S9        29.93F                  
ARBOR VITAE    CLOUDY    72  67  86 S8        29.95F                  
WOODRUFF       CLOUDY    72  67  86 S8        29.95F                  
RHINELANDER    CLOUDY    68  65  90 S8        29.98S FOG              
EAGLE RIVER    CLOUDY    67  67  98 S6        29.96F FOG              
LAND O LAKES   CLOUDY    68  66  92 S8        29.98F FOG              
PHILLIPS       FAIR      69  69  99 S9G17     29.92S                  
TOMAHAWK       CLOUDY    67  65  94 CALM      29.96F FOG              
MEDFORD        CLOUDY    66  66  97 S9        29.95S FOG              
MERRILL        CLOUDY    68  68 100 SE6       29.96F FOG              
$$
 
WIZ029-030-035-036-043>047-211400-
CENTRAL WISCONSIN
  
CITY           SKY/WX    TMP DP  RH WIND       PRES   REMARKS
WAUSAU         PTSUNNY   68  68 100 S5        29.96S FOG              
MOSINEE        PTSUNNY   68  64  88 SE9       29.98F FOG              
MARSHFIELD     PTSUNNY   69  67  93 S9        29.95F FOG              
STEVENS POINT  FAIR      68  68 100 S9        29.98S                  
WAUPACA        FAIR      70  69  98 S5        29.98F FOG              
WAUTOMA        FAIR      69  67  93 SE5       29.99F                  
WISC RAPIDS    FAIR      70  67  90 S8        29.96F                  
CAMP DOUGLAS   PTSUNNY   71  71 100 S6        29.96S                  
$$
 
WIZ011>013-019>022-031-037>040-048>050-211400-
NORTHEAST WISCONSIN
  
CITY           SKY/WX    TMP DP  RH WIND       PRES   REMARKS
ANTIGO         FOG       64  64 100 SE9       30.00F VSB<1/4          
SHAWANO        FAIR      70  69  97 S6        29.99S FOG              
OCONTO         FAIR      68  66  94 SE8       30.00F                  
STURGEON BAY   FAIR      67  65  93 S10       30.03F                  
GREEN BAY      FAIR      68  65  90 SE6       30.01S FOG              
MANITOWOC      FOG       66  66 100 S8        30.04S VSB 3/4          
APPLETON       PTSUNNY   72  68  88 S9        29.99F                  
CLINTONVILLE   FAIR      67  66  95 SE6       29.98F FOG              
OSHKOSH        FAIR      71  67  87 S13G22    29.99F                  
$$
 
WIZ032>034-041-042-053>061-211400-
SOUTHWEST WISCONSIN
  
CITY           SKY/WX    TMP DP  RH WIND       PRES   REMARKS
LA CROSSE      CLOUDY    75  68  78 S12G21    29.90                   
SPARTA         CLOUDY    70  65  86 S10       29.94S                  
VIROQUA        CLOUDY    70  70 100 S14       29.96S                  
BOSCOBEL       LGT RAIN  74  68  81 S7        29.97S                  
PRAIRIE DU CHI CLOUDY    71  68  91 SE8       29.96S                  
PLATTEVILLE    CLOUDY    71  71 100 S15G22    30.00F                  
$$

WIZ056-057-062-063-064-067-068-211400-
SOUTH CENTRAL WISCONSIN
  
CITY           SKY/WX    TMP DP  RH WIND       PRES   REMARKS
REEDSBURG      CLOUDY    70  70 100 S10       29.98S                  
BARABOO/DELLS  CLOUDY    68  66  93 S10G17    29.99S                  
LONE ROCK      CLOUDY    72  67  84 S10       29.99R                  
MINERAL POINT  CLOUDY    72  72 100 S7        30.01S                  
MADISON        CLOUDY    72  67  84 S14G24    30.01F                  
MIDDLETON      PTSUNNY   72  67  83 S10       30.02S                  
WATERTOWN      FAIR      70  70 100 S8        30.03S                  
MONROE         CLOUDY   N/A N/A N/A S16       30.03F                  
JANESVILLE     CLOUDY    73  73 100 S13       30.04F                  
$$
 
WIZ051-052-058>065-066-070>072-211400-
SOUTHEAST WISCONSIN
  
CITY           SKY/WX    TMP DP  RH WIND       PRES   REMARKS
MILWAUKEE      PTSUNNY   74  68  81 S9        30.06S                  
WAUKESHA       SUNNY     70  66  88 S7        30.06F                  
MILWAUKEE/TIMM SUNNY     72  64  78 S9        30.06F                  
RACINE         FAIR      72  67  84 S7        30.08F                  
KENOSHA        FAIR      74  70  87 S10       30.08S                  
FOND DU LAC    FAIR      73  67  81 MISG      30.02F                  
SHEBOYGAN      FAIR      66  65  96 S8        30.03F FOG              
WEST BEND      FAIR      70  68  94 S7        30.04F                  
JUNEAU         FAIR      70  68  93 S7        30.04S                  
$$

LSZ147-162-211400-
LAKE SUPERIOR
  
STATION/POSITION TIME  TEMP    WIND        PRES    WAVE
                       AIR SEA DIR/SP/G            HT/PER
                 (UTC) (F)     (DEG/KT/KT) (MB)    (FT/S)
W MID LAKE BUOY  1250   61 54  170/ 12/ 12 1010.6F   1/ 3
DEVILS ISLAND    1300   68     160/ 10/ 12 1009.7F
SAXON HARBOR     1230   74     190/  7/ 12 1010.5S
$$
 
LMZ867-665-643>646-211400-
LAKE MICHIGAN
  
STATION/POSITION TIME  TEMP    WIND        PRES    WAVE
                       AIR SEA DIR/SP/G            HT/PER
                 (UTC) (F)     (DEG/KT/KT) (MB)    (FT/S)
CHAMBERS ISLAND  1240   67     120/  6/ 11   N/A
N MID LAKE BUOY  1300   66 63  160/ 12/ 14 1017.6
NORTHPORT PIER   1240   68     130/  5/  7 1016.6F
KEWAUNEE LAKESHO 1236   62     170/  3/  6 1016.3F
SHEBOYGAN LAKESH 1300   65     180/ 16/ 17 1016.9F
PORT WASHINGTON  1240   67     190/  1/  2 1018.6S
ATWATER BUOY     1300   65 60  170/ 12/ 14 1017.8    1/ 2
S MID LAKE BUOY  1310   71 69  190/ 14/ 17 1019.2
KENOSHA   LAKESH 1300   67     170/ 12/ 13 1018.3
$$

TC  - TEMPERATURE IN CELSIUS
VSB - VISIBILITY IN STATUTE MILES
WCI - WIND CHILL INDEX
HX  - HEAT INDEX